• In Hungary
  • List of Countries
  • For 7 days
  • Water Temperature
  • Satellite Maps
  • Weather Map
  • News
  • Weather Widgets
  • user-avatar
    Login

    Hourly Weather Horobii

    Today, 11 December, Monday

    Time Temperature Precipitation Wind Pressure Humidity
    00:00 -2°C° 0.5 mm 8 mps 740 mmHg 87%
    01:00 -4°C° 0.5 mm 8 mps 741 mmHg 87%
    02:00 -4°C° 0 mm 9 mps 740 mmHg 87%
    03:00 -5°C° 0.1 mm 9 mps 742 mmHg 86%
    04:00 -5°C° 0.1 mm 8 mps 743 mmHg 85%
    05:00 -6°C° 0.1 mm 8 mps 744 mmHg 84%
    06:00 -6°C° 0 mm 7 mps 745 mmHg 84%
    07:00 -5°C° 0 mm 6 mps 746 mmHg 84%
    08:00 -6°C° 0 mm 5 mps 747 mmHg 83%
    09:00 -5°C° 0 mm 5 mps 747 mmHg 81%
    10:00 -4°C° 0 mm 5 mps 747 mmHg 79%
    11:00 -3°C° 0 mm 6 mps 748 mmHg 76%
    12:00 -2°C° 0 mm 5 mps 748 mmHg 77%
    13:00 -1°C° 0 mm 5 mps 748 mmHg 78%
    14:00 -1°C° 0 mm 5 mps 748 mmHg 78%
    15:00 -1°C° 0 mm 5 mps 748 mmHg 79%
    16:00 -1°C° 0 mm 5 mps 748 mmHg 79%
    17:00 -1°C° 0 mm 5 mps 748 mmHg 80%
    18:00 -1°C° 0 mm 5 mps 748 mmHg 80%
    19:00 -1°C° 0 mm 4 mps 748 mmHg 80%
    20:00 0°C° 0 mm 4 mps 748 mmHg 80%
    21:00 0°C° 0 mm 4 mps 748 mmHg 82%
    22:00 0°C° 0 mm 4 mps 749 mmHg 84%
    23:00 0°C° 0 mm 5 mps 749 mmHg 86%

    Tomorrow, 12 December, Tuesday

    Time Temperature Precipitation Wind Pressure Humidity
    00:00 0°C° 0.2 mm 4 mps 749 mmHg 86%
    01:00 0°C° 0.2 mm 4 mps 749 mmHg 86%
    02:00 0°C° 0.2 mm 4 mps 749 mmHg 87%
    03:00 0°C° 0.1 mm 4 mps 749 mmHg 86%
    04:00 0°C° 0.1 mm 4 mps 749 mmHg 85%
    05:00 +1°C° 0.1 mm 4 mps 749 mmHg 84%
    06:00 0°C° 0 mm 4 mps 749 mmHg 83%
    07:00 0°C° 0 mm 4 mps 749 mmHg 82%
    08:00 0°C° 0 mm 4 mps 749 mmHg 82%
    09:00 +1°C° 0 mm 4 mps 749 mmHg 80%
    10:00 +3°C° 0 mm 4 mps 749 mmHg 79%
    11:00 +3°C° 0 mm 4 mps 749 mmHg 77%
    12:00 +4°C° 0 mm 4 mps 749 mmHg 77%
    13:00 +4°C° 0 mm 4 mps 749 mmHg 77%
    14:00 +5°C° 0 mm 4 mps 749 mmHg 77%
    15:00 +4°C° 0 mm 4 mps 749 mmHg 79%
    16:00 +4°C° 0 mm 4 mps 749 mmHg 81%
    17:00 +3°C° 0 mm 4 mps 750 mmHg 82%
    18:00 +3°C° 0 mm 4 mps 750 mmHg 83%
    19:00 +3°C° 0 mm 4 mps 750 mmHg 84%
    20:00 +3°C° 0 mm 4 mps 750 mmHg 84%
    21:00 +3°C° 0 mm 3 mps 750 mmHg 85%
    22:00 +2°C° 0 mm 3 mps 751 mmHg 85%
    23:00 +2°C° 0 mm 3 mps 751 mmHg 86%

    Day after tomorrow, 13 December, Wednesday

    Time Temperature Precipitation Wind Pressure Humidity
    00:00 +2°C° 0 mm 3 mps 751 mmHg 86%
    01:00 +2°C° 0 mm 3 mps 751 mmHg 86%
    02:00 +2°C° 0 mm 3 mps 751 mmHg 86%
    03:00 +2°C° 0 mm 3 mps 751 mmHg 86%
    04:00 +2°C° 0 mm 3 mps 751 mmHg 86%
    05:00 +2°C° 0 mm 3 mps 751 mmHg 86%
    06:00 +2°C° 0 mm 3 mps 751 mmHg 86%
    07:00 +2°C° 0 mm 3 mps 751 mmHg 86%
    08:00 +2°C° 0 mm 3 mps 751 mmHg 86%
    09:00 +3°C° 0 mm 3 mps 751 mmHg 84%
    10:00 +4°C° 0 mm 3 mps 751 mmHg 81%
    11:00 +5°C° 0 mm 3 mps 751 mmHg 78%
    12:00 +5°C° 0 mm 3 mps 750 mmHg 79%
    13:00 +5°C° 0 mm 3 mps 750 mmHg 80%
    14:00 +6°C° 0 mm 2 mps 750 mmHg 81%
    15:00 +5°C° 0 mm 2 mps 750 mmHg 84%
    16:00 +5°C° 0 mm 2 mps 750 mmHg 88%
    17:00 +3°C° 0 mm 3 mps 751 mmHg 91%
    18:00 +3°C° 0 mm 3 mps 751 mmHg 91%
    19:00 +2°C° 0 mm 3 mps 751 mmHg 92%
    20:00 +2°C° 0 mm 3 mps 751 mmHg 92%
    21:00 +2°C° 0.2 mm 3 mps 751 mmHg 92%
    22:00 +2°C° 0.2 mm 3 mps 751 mmHg 92%
    23:00 +2°C° 0.2 mm 3 mps 751 mmHg 92%

    14 December, Thursday

    Time Temperature Precipitation Wind Pressure Humidity
    00:00 +2°C° 0.4 mm 3 mps 751 mmHg 92%
    01:00 +1°C° 0.4 mm 3 mps 751 mmHg 92%
    02:00 +2°C° 0.4 mm 2 mps 751 mmHg 92%
    03:00 +2°C° 0.1 mm 2 mps 751 mmHg 93%
    04:00 +2°C° 0.1 mm 2 mps 750 mmHg 94%
    05:00 +1°C° 0.1 mm 2 mps 750 mmHg 95%
    06:00 +1°C° 0.1 mm 2 mps 750 mmHg 95%
    07:00 +1°C° 0.1 mm 2 mps 750 mmHg 95%
    08:00 +1°C° 0.1 mm 2 mps 750 mmHg 95%
    09:00 +3°C° 0.2 mm 1 mps 750 mmHg 94%
    10:00 +3°C° 0.2 mm 1 mps 749 mmHg 93%
    11:00 +4°C° 0.2 mm 1 mps 749 mmHg 93%
    12:00 +4°C° 0.7 mm 1 mps 749 mmHg 94%
    13:00 +4°C° 0.7 mm 1 mps 748 mmHg 95%
    14:00 +3°C° 0.7 mm 1 mps 748 mmHg 96%
    15:00 +3°C° 0.2 mm 1 mps 748 mmHg 96%
    16:00 +3°C° 0.2 mm 1 mps 748 mmHg 96%
    17:00 +3°C° 0.2 mm 1 mps 748 mmHg 96%
    18:00 +2°C° 0 mm 0 mps 748 mmHg 96%
    19:00 +1°C° 0 mm 0 mps 748 mmHg 96%
    20:00 +1°C° 0 mm 0 mps 748 mmHg 96%
    21:00 +2°C° 0 mm 1 mps 748 mmHg 96%
    22:00 +2°C° 0 mm 1 mps 747 mmHg 96%
    23:00 +2°C° 0 mm 1 mps 747 mmHg 96%

    15 December, Friday

    Time Temperature Precipitation Wind Pressure Humidity
    00:00 +2°C° 0 mm 1 mps 747 mmHg 96%
    01:00 +2°C° 0 mm 1 mps 747 mmHg 96%
    02:00 +2°C° 0 mm 2 mps 747 mmHg 96%
    03:00 +2°C° 0 mm 2 mps 747 mmHg 96%
    04:00 +1°C° 0 mm 3 mps 746 mmHg 96%
    05:00 +1°C° 0 mm 3 mps 746 mmHg 96%
    06:00 0°C° 0 mm 4 mps 746 mmHg 95%
    07:00 +1°C° 0 mm 4 mps 746 mmHg 95%
    08:00 +1°C° 0 mm 5 mps 746 mmHg 94%
    09:00 +1°C° 0 mm 5 mps 746 mmHg 91%
    10:00 +2°C° 0 mm 6 mps 746 mmHg 88%
    11:00 +3°C° 0 mm 6 mps 746 mmHg 85%
    12:00 +3°C° 0 mm 6 mps 746 mmHg 83%
    13:00 +4°C° 0 mm 6 mps 746 mmHg 82%
    14:00 +4°C° 0 mm 6 mps 746 mmHg 80%
    15:00 +5°C° 0 mm 5 mps 747 mmHg 82%
    16:00 +3°C° 0 mm 5 mps 747 mmHg 84%
    17:00 +4°C° 0 mm 4 mps 747 mmHg 87%
    18:00 +3°C° 0 mm 4 mps 747 mmHg 87%
    19:00 +3°C° 0 mm 4 mps 748 mmHg 88%
    20:00 +3°C° 0 mm 4 mps 748 mmHg 88%
    21:00 +3°C° 0 mm 4 mps 748 mmHg 89%
    22:00 +2°C° 0 mm 5 mps 748 mmHg 90%
    23:00 +2°C° 0 mm 5 mps 747 mmHg 90%

    16 December, Saturday

    Time Temperature Precipitation Wind Pressure Humidity
    00:00 +3°C° 0 mm 6 mps 747 mmHg 90%
    01:00 +3°C° 0 mm 6 mps 747 mmHg 90%
    02:00 +4°C° 0 mm 7 mps 746 mmHg 90%
    03:00 +4°C° 0 mm 8 mps 746 mmHg 89%
    04:00 +5°C° 0 mm 9 mps 746 mmHg 88%
    05:00 +5°C° 0 mm 9 mps 745 mmHg 87%
    06:00 +5°C° 0.1 mm 10 mps 745 mmHg 86%
    07:00 +6°C° 0.1 mm 10 mps 745 mmHg 85%
    08:00 +6°C° 0.1 mm 10 mps 745 mmHg 85%
    09:00 +6°C° 0.1 mm 9 mps 745 mmHg 83%
    10:00 +7°C° 0.1 mm 9 mps 745 mmHg 81%
    11:00 +7°C° 0.1 mm 9 mps 745 mmHg 79%
    12:00 +7°C° 0 mm 9 mps 745 mmHg 79%
    13:00 +9°C° 0 mm 8 mps 745 mmHg 78%
    14:00 +9°C° 0 mm 8 mps 744 mmHg 78%
    15:00 +8°C° 0.1 mm 7 mps 744 mmHg 78%
    16:00 +8°C° 0.1 mm 7 mps 744 mmHg 78%
    17:00 +8°C° 0.1 mm 6 mps 744 mmHg 79%
    18:00 +8°C° 0 mm 6 mps 744 mmHg 80%
    19:00 +8°C° 0 mm 6 mps 744 mmHg 81%
    20:00 +8°C° 0 mm 6 mps 744 mmHg 83%
    21:00 +8°C° 0.1 mm 6 mps 744 mmHg 84%
    22:00 +8°C° 0.1 mm 6 mps 745 mmHg 86%
    23:00 +8°C° 0.1 mm 6 mps 745 mmHg 88%
    Show more